Regional Weather Roundup
Issued by NWS

Home | Current Version | Previous Version | Text Only | Print | Product List | Glossary Off
Versions: 1 2 3 4 5 6 7 8 9 10 11 12 13 14 15 16 17 18 19 20 21 22 23 24 25 26 27 28 29 30 31 32 33 34 35 36 37 38 39 40 41 42 43 44 45 46 47 48 49 50

000
ASUS45 KABQ 271901
RWRNM
NEW MEXICO REGIONAL WEATHER ROUNDUP
NATIONAL WEATHER SERVICE ALBUQUERQUE NM
100 PM MDT THU AUG 27 2015

NOTE: "FAIR" MEANS FEW OR NO CLOUDS BELOW 12,000 FEET AGL WITH NO
       SIGNIFICANT WEATHER OR OBSTRUCTIONS TO VISION.

      THIS PRODUCT IS RELEASED AS TWO VERSIONS.  ONE VERSION NEAR
      THE TOP OF THE HOUR CONTAINING PRELIMINARY DATA FROM ALBUQUERQUE
      AND OTHER STATIONS.  A FINAL VERSION WITH ADDITIONAL DATA IS
      ISSUED ABOUT 10 MINUTES AFTER THE HOUR.

NMZ501-503-504-510>518-272000-
NORTHWEST PLATEAU/NORTHCENTRAL MOUNTAINS

CITY           SKY/WX    TMP DP  RH WIND       PRES   REMARKS
FARMINGTON     PTSUNNY   77  56  48 W9        30.30F
SANTA FE       MOSUNNY   76  53  44 VRB6G17   30.33F
TAOS           MOSUNNY   77  48  36 W17G23    30.37F

$$
NMZ402-403-502-505>509-272000-
WESTCENTRAL MOUNTAINS/SOUTHWEST MOUNTAINS

CITY           SKY/WX    TMP DP  RH WIND       PRES   REMARKS
GALLUP         MOSUNNY   77  56  48 VRB7      30.36F
GRANTS         PTSUNNY   71  57  61 CALM      30.38F
SILVER CITY      N/A     82  54  36 NW15G22   30.33F

$$
NMZ407-409-411-412-272000-
SOUTHERN DESERTS

CITY           SKY/WX    TMP DP  RH WIND       PRES   REMARKS
DEMING         PTSUNNY   89  53  29 E9        30.22F
HOLLOMAN AFB   MOSUNNY   91  53  26 SW7       30.17F
ALAMOGORDO     SUNNY     90  50  25 W5G16     30.20F
T OR C         MOSUNNY   87  54  32 SE10      30.23F

$$
NMZ519>523-272000-
CENTRAL VALLEYS/CENTRAL HIGHLANDS

CITY           SKY/WX    TMP DP  RH WIND       PRES   REMARKS
ALBUQUERQUE    PTSUNNY   78  56  46 VRB3      30.29F
MORIARTY ARPT  FAIR      79  50  36 W12       30.34F
CLINES CORNERS MOSUNNY   75  50  41 W18G28    30.36F
BELEN          FAIR      81  55  40 SW6       30.28F
SOCORRO        NOT AVBL

$$
NMZ524>526-539-540-272000-
SOUTHCENTRAL MOUNTAINS

CITY           SKY/WX    TMP DP  RH WIND       PRES   REMARKS
RUIDOSO        MOSUNNY   70  57  64 MISG      30.39F

$$
NMZ527>531-272000-
NORTHEAST HIGHLANDS/NORTHEAST PLAINS

CITY           SKY/WX    TMP DP  RH WIND       PRES   REMARKS
LAS VEGAS      MOSUNNY   82  47  29 W17G28    30.31F
RATON          MOSUNNY   82  45  27 W10       30.21F
CLAYTON        PTSUNNY   88  55  32 SW14G22   30.13F

$$
NMZ532>537-272000-
EASTCENTRAL PLAINS

CITY           SKY/WX    TMP DP  RH WIND       PRES   REMARKS
TUCUMCARI      PTSUNNY   89  53  29 W21G30    30.12F
CANNON AFB     MOSUNNY   90  53  28 W12G20    30.16F
CLOVIS AIRPORT MOSUNNY   91  54  27 SW10G17   30.17F

$$
NMZ028-029-538-272000-
SOUTHEAST PLAINS

CITY           SKY/WX    TMP DP  RH WIND       PRES   REMARKS
ROSWELL        SUNNY     94  54  25 CALM      30.12F
ARTESIA        SUNNY     93  55  27 SE14G20   30.13F
CARLSBAD       NOT AVBL


$$


USA.gov is the U.S. government's official web portal to all federal, state and local government web resources and services.